Location: B?dimalle
(17.1788°N, 80.5377°E)
Time: 20:57:27
(UTC+00:00)

A-11 Canister half - All Passes

Search period start: 18 February 2026 00:00
Search period end: 28 February 2026 00:00
Orbit: 1525 x 1682 km, 47.3° (Epoch: 18 February)

Date Brightness Start Highest point End Pass type
(mag) Time Alt. Az. Time Alt. Az. Time Alt. Az.
18 Feb - 06:55:31 10° SSE 07:01:31 18° SE 07:07:23 10° E daylight
18 Feb - 08:56:20 10° SW 09:06:01 90° WNW 09:15:26 10° NE daylight
18 Feb - 11:04:39 10° W 11:11:44 23° NW 11:18:47 10° NNE daylight
18 Feb - 15:27:39 10° N 15:30:35 12° NNE 15:33:31 10° NE visible
18 Feb - 17:29:05 10° NNW 17:37:51 43° NE 17:46:50 10° ESE visible
18 Feb - 19:33:51 10° WNW 19:42:47 47° SW 19:52:02 10° SSE night (unlit)
19 Feb - 06:34:11 10° SSE 06:39:41 16° SE 06:45:05 10° E daylight
19 Feb - 08:34:29 10° SW 08:44:12 85° SE 08:53:37 10° NE daylight
19 Feb - 10:42:28 10° W 10:49:49 25° NW 10:57:06 10° NNE daylight
19 Feb - 15:06:17 10° N 15:08:33 11° NNE 15:10:50 10° NE visible
19 Feb - 17:07:20 10° NNW 17:15:59 40° NE 17:24:47 10° ESE visible
19 Feb - 19:11:56 10° WNW 19:20:58 51° SW 19:30:18 10° SSE night (unlit)
20 Feb - 06:12:55 10° SSE 06:17:51 15° SE 06:22:40 10° E daylight
20 Feb - 08:12:38 10° SW 08:22:22 80° SE 08:31:47 10° NE daylight
20 Feb - 10:20:17 10° W 10:27:53 26° NW 10:35:23 10° NNE daylight
20 Feb - 14:45:10 10° N 14:46:31 10° NNE 14:47:52 10° NNE visible
20 Feb - 16:45:36 10° NNW 16:54:05 37° NE 17:02:43 10° ESE visible
20 Feb - 18:50:03 10° NW 18:59:08 55° SW 19:08:33 10° SSE night (unlit)
21 Feb - 05:51:48 10° SSE 05:56:00 13° SE 06:00:09 10° E daylight
21 Feb - 07:50:49 10° SW 08:00:32 76° SE 08:09:56 10° NE daylight
21 Feb - 09:58:08 10° W 10:05:58 28° NW 10:13:41 10° NNE daylight
21 Feb - 16:23:52 10° NNW 16:32:12 35° NE 16:40:39 10° ESE visible
21 Feb - 18:28:09 10° NW 18:37:18 59° SW 18:46:47 10° SSE night (unlit)
22 Feb - 05:30:53 10° SSE 05:34:10 12° SE 05:37:24 10° ESE daylight
22 Feb - 07:28:59 10° SSW 07:38:42 71° SE 07:48:05 10° NE daylight
22 Feb - 09:36:00 10° W 09:44:03 30° NW 09:51:58 10° NNE daylight
22 Feb - 16:02:08 10° NNW 16:10:18 33° NE 16:18:35 10° E visible
22 Feb - 18:06:17 10° NW 18:15:29 63° SW 18:25:01 10° SSE night (unlit)
23 Feb - 05:10:27 10° SE 05:12:18 11° SE 05:14:11 10° ESE daylight
23 Feb - 07:07:11 10° SSW 07:16:52 66° SE 07:26:13 10° NE daylight
23 Feb - 09:13:53 10° W 09:22:08 32° NW 09:30:14 10° NNE daylight
23 Feb - 15:40:25 10° NNW 15:48:24 31° NE 15:56:29 10° E visible
23 Feb - 17:44:24 10° NW 17:53:40 67° SW 18:03:14 10° SSE visible
23 Feb - 19:56:16 10° WSW 19:58:11 11° SW 20:00:07 10° SW night (unlit)
24 Feb - 06:45:24 10° SSW 06:55:02 62° SE 07:04:21 10° NE daylight
24 Feb - 08:51:47 10° W 09:00:14 34° NW 09:08:31 10° NNE daylight
24 Feb - 15:18:42 10° NNW 15:26:29 29° NE 15:34:22 10° E visible
24 Feb - 17:22:32 10° NW 17:31:50 72° SW 17:41:25 10° SSE visible
24 Feb - 19:33:06 10° WSW 19:36:20 12° SW 19:39:38 10° SSW night (unlit)
25 Feb - 06:23:37 10° SSW 06:33:12 58° SE 06:42:28 10° NE daylight
25 Feb - 08:29:42 10° WSW 08:38:20 36° NW 08:46:48 10° NNE daylight
25 Feb - 10:45:36 10° NNW 10:46:02 10° NNW 10:46:29 10° NNW daylight
25 Feb - 14:56:58 10° NNW 15:04:35 27° NE 15:12:14 10° E visible
25 Feb - 17:00:41 10° NW 17:10:01 77° SW 17:19:36 10° SE visible
25 Feb - 19:10:22 10° W 19:14:30 13° SW 19:18:42 10° SSW night (unlit)
26 Feb - 06:01:50 10° SSW 06:11:22 54° SE 06:20:34 10° NE daylight
26 Feb - 08:07:37 10° WSW 08:16:26 38° NW 08:25:03 10° NNE daylight
26 Feb - 10:22:07 10° NNW 10:23:59 11° NNW 10:25:51 10° N daylight
26 Feb - 14:35:16 10° NNW 14:42:40 26° NE 14:50:06 10° E visible
26 Feb - 16:38:51 10° NW 16:48:11 81° SW 16:57:47 10° SE visible
26 Feb - 18:47:51 10° W 18:52:40 15° SW 18:57:33 10° SSW night (unlit)
27 Feb - 05:40:06 10° SSW 05:49:32 50° SE 05:58:39 10° ENE daylight
27 Feb - 07:45:34 10° WSW 07:54:33 41° NW 08:03:18 10° NNE daylight
27 Feb - 09:59:19 10° NW 10:01:57 11° NNW 10:04:35 10° N daylight
27 Feb - 14:13:34 10° NNW 14:20:44 24° NE 14:27:56 10° E visible
27 Feb - 16:17:01 10° NW 16:26:21 86° SW 16:35:57 10° SE visible
27 Feb - 18:25:28 10° W 18:30:50 17° SW 18:36:18 10° SSW night (unlit)
